FW6402 Weather Reports


Display with metric or nautical units.
time (UTC)temp
F
wind
direction
speed
MPH
gust
MPH
rain 1hr
in
rain 24hr
in
rain mn
in
humidity
%
barometer
mb
20260904212006 60 278 1.0 4.0 0.09 0.23 0.17 85 1015.5
20260904211438 62 252 1.0 4.0 0.06 0.20 0.14 80 1015.4
20260904210936 65 184 1.0 4.0 0.03 0.17 0.11 74 1015.4
20260904210436 67 212 1.0 3.0 0.00 0.14 0.08 66 1015.0
20260904205933 67 231 1.0 2.0 0.00 0.14 0.08 62 1014.8
20260904205424 68 217 1.0 2.0 0.00 0.14 0.08 61 1014.7
20260904204924 68 268 0.0 2.0 0.00 0.14 0.08 65 1014.6
20260904204422 68 280 1.0 2.0 0.00 0.14 0.08 61 1014.6
20260904203940 68 259 1.0 3.0 0.00 0.14 0.08 62 1014.6
20260904203445 68 86 1.0 3.0 0.00 0.14 0.08 61 1014.6
20260904202922 67 45 0.0 5.0 0.00 0.14 0.08 63 1014.6
20260904202440 68 44 0.0 4.0 0.00 0.14 0.08 62 1014.6
20260904201933 68 70 0.0 2.0 0.00 0.14 0.08 62 1014.6
20260904201418 68 12 0.0 2.0 0.00 0.14 0.08 63 1014.5
20260904200956 67 326 0.0 3.0 0.00 0.14 0.08 64 1014.6
20260904200441 67 275 1.0 3.0 0.00 0.14 0.08 64 1014.6
20260904195938 67 270 1.0 5.0 0.00 0.15 0.08 63 1014.6
20260904195455 68 262 2.0 5.0 0.00 0.15 0.08 61 1014.6
20260904194959 68 49 1.0 5.0 0.00 0.15 0.08 61 1014.7
20260904194434 68 259 3.0 5.0 0.00 0.15 0.08 60 1014.7
20260904193928 69 262 1.0 6.0 0.00 0.15 0.08 61 1014.7
20260904193426 68 95 2.0 6.0 0.00 0.15 0.08 63 1014.8
20260904192923 68 218 1.0 5.0 0.00 0.15 0.08 62 1014.7
20260904192444 67 91 0.0 4.0 0.00 0.15 0.08 65 1014.7
20260904191943 66 67 2.0 6.0 0.00 0.15 0.08 63 1014.7
20260904191418 66 34 4.0 6.0 0.00 0.15 0.08 63 1014.8
20260904191005 66 77 2.0 6.0 0.00 0.15 0.08 64 1014.8
20260904190421 66 112 2.0 7.0 0.00 0.15 0.08 66 1014.8
20260904185919 65 64 3.0 7.0 0.00 0.17 0.08 65 1014.9
20260904185437 65 59 0.0 8.0 0.00 0.17 0.08 67 1014.9
20260904184932 66 302 3.0 8.0 0.00 0.17 0.08 67 1014.9
20260904184430 66 21 1.0 4.0 0.00 0.17 0.08 66 1014.8
20260904183935 66 95 2.0 5.0 0.00 0.17 0.08 65 1014.8
20260904183433 66 110 1.0 4.0 0.00 0.17 0.08 66 1014.7
20260904182955 66 161 0.0 3.0 0.00 0.17 0.08 68 1014.8
20260904182449 66 240 1.0 2.0 0.00 0.17 0.08 67 1014.7
20260904181919 65 110 0.0 2.0 0.00 0.17 0.08 67 1014.7
20260904181425 66 27 1.0 2.0 0.00 0.17 0.08 66 1014.7
20260904180923 66 276 0.0 1.0 0.00 0.17 0.08 69 1014.7
20260904180506 65 276 0.0 1.0 0.00 0.17 0.08 71 1014.7
20260904175942 65 148 0.0 1.0 0.00 0.17 0.08 71 1014.7
20260904175418 65 150 0.0 1.0 0.00 0.17 0.08 71 1014.7
20260904174936 65 138 0.0 2.0 0.00 0.17 0.08 70 1014.7
20260904174503 64 133 0.0 2.0 0.00 0.17 0.08 71 1014.6
20260904173940 63 6 1.0 3.0 0.00 0.17 0.08 71 1014.6
20260904173419 63 65 0.0 3.0 0.00 0.17 0.08 75 1014.5
20260904172945 64 108 0.0 3.0 0.00 0.17 0.08 76 1014.5
20260904172422 63 44 1.0 4.0 0.00 0.17 0.08 78 1014.5
20260904171936 62 57 1.0 4.0 0.00 0.17 0.08 78 1014.5
20260904171502 62 6 1.0 4.0 0.00 0.17 0.08 76 1014.5
20260904170938 61 70 1.0 3.0 0.00 0.17 0.08 79 1014.5
20260904170438 61 242 0.0 3.0 0.00 0.17 0.08 83 1014.5
20260904165935 61 164 0.0 1.0 0.00 0.17 0.08 86 1014.5
20260904165433 60 149 0.0 2.0 0.00 0.17 0.08 88 1014.4
20260904164938 59 142 0.0 2.0 0.00 0.17 0.08 88 1014.5
20260904164455 59 179 0.0 2.0 0.00 0.17 0.08 90 1014.5
20260904163933 59 97 0.0 2.0 0.00 0.17 0.08 87 1014.4
20260904163426 59 84 0.0 2.0 0.00 0.17 0.08 92 1014.3
20260904162923 58 68 1.0 2.0 0.00 0.17 0.08 89 1014.3
20260904162425 57 83 1.0 4.0 0.00 0.17 0.08 89 1014.4
20260904161925 57 82 1.0 4.0 0.00 0.17 0.08 89 1014.3
20260904161422 57 72 0.0 3.0 0.00 0.17 0.08 91 1014.4
20260904160920 56 70 0.0 3.0 0.00 0.17 0.08 90 1014.4
20260904160419 56 39 1.0 3.0 0.00 0.17 0.08 90 1014.4
20260904160004 56 49 0.0 2.0 0.00 0.19 0.08 91 1014.4
20260904155419 56 67 1.0 2.0 0.00 0.19 0.08 90 1014.4
20260904154931 56 65 0.0 2.0 0.00 0.19 0.08 91 1014.5
20260904154428 56 129 0.0 3.0 0.00 0.19 0.08 91 1014.5
20260904153924 55 128 0.0 3.0 0.00 0.19 0.08 91 1014.4
20260904153426 55 124 0.0 2.0 0.00 0.19 0.08 91 1014.4
20260904152937 55 72 1.0 2.0 0.00 0.19 0.08 92 1014.3
20260904152444 54 82 0.0 3.0 0.00 0.19 0.08 92 1014.3
20260904151942 54 54 1.0 3.0 0.00 0.19 0.08 92 1014.3
20260904151421 54 48 1.0 2.0 0.00 0.19 0.08 92 1014.4
20260904150937 54 94 1.0 2.0 0.00 0.19 0.08 92 1014.3
20260904150434 54 110 0.0 3.0 0.00 0.19 0.08 92 1014.2
20260904145936 54 75 1.0 3.0 0.00 0.24 0.08 92 1014.3
20260904145432 54 59 0.0 3.0 0.00 0.24 0.08 92 1014.2
20260904144948 54 157 0.0 2.0 0.00 0.24 0.08 91 1014.2
20260904144447 54 191 1.0 3.0 0.00 0.24 0.08 91 1014.2
20260904144007 54 101 1.0 4.0 0.00 0.24 0.08 91 1013.9
20260904143422 54 96 2.0 4.0 0.00 0.24 0.08 91 1013.7
20260904142940 54 74 2.0 7.0 0.00 0.24 0.08 91 1013.7
20260904142447 54 62 3.0 7.0 0.00 0.24 0.08 92 1013.6
20260904141919 53 95 1.0 3.0 0.00 0.24 0.08 92 1013.5
20260904141437 53 89 0.0 3.0 0.00 0.24 0.08 92 1013.4
20260904140936 53 76 2.0 4.0 0.00 0.24 0.08 93 1013.3
20260904140433 53 97 1.0 4.0 0.00 0.24 0.08 93 1013.3
20260904135958 53 50 1.0 6.0 0.00 0.24 0.08 93 1013.4
20260904135433 53 39 2.0 5.0 0.01 0.24 0.08 93 1013.4
20260904134932 53 53 1.0 4.0 0.01 0.24 0.08 93 1013.4
20260904134457 53 134 2.0 5.0 0.01 0.24 0.08 92 1013.4
20260904133932 53 105 1.0 5.0 0.01 0.24 0.08 93 1013.4
20260904133425 53 69 2.0 4.0 0.01 0.24 0.08 93 1013.3
20260904132945 53 79 2.0 4.0 0.01 0.24 0.08 93 1013.2
20260904132423 53 131 0.0 4.0 0.01 0.24 0.08 93 1013.2
20260904131920 53 37 1.0 3.0 0.01 0.24 0.08 94 1013.2
20260904131418 53 79 1.0 2.0 0.01 0.24 0.08 94 1013.1
20260904130945 53 65 1.0 3.0 0.01 0.24 0.08 94 1013.0
20260904130442 53 66 1.0 4.0 0.01 0.24 0.08 94 1013.0
20260904125920 53 51 2.0 4.0 0.01 0.25 0.08 94 1013.1
20260904125437 53 110 1.0 2.0 0.00 0.24 0.07 94 1013.3
20260904124935 53 86 1.0 2.0 0.00 0.24 0.07 93 1013.2
20260904124432 53 73 0.0 2.0 0.00 0.24 0.07 93 1013.1
20260904123927 53 71 0.0 2.0 0.01 0.24 0.07 93 1013.0
20260904123434 53 78 0.0 0.0 0.01 0.24 0.07 93 1013.0
20260904122929 53 78 0.0 0.0 0.01 0.24 0.07 93 1012.9
20260904122427 53 78 0.0 1.0 0.02 0.24 0.07 93 1012.9
20260904121925 53 72 0.0 3.0 0.02 0.24 0.07 93 1012.8
20260904121445 53 65 1.0 3.0 0.03 0.24 0.07 93 1012.7
20260904120943 53 75 1.0 2.0 0.03 0.24 0.07 93 1012.7
20260904120441 53 51 0.0 2.0 0.03 0.24 0.07 93 1012.7
20260904115918 53 70 0.0 3.0 0.04 0.24 0.07 93 1012.6
20260904115456 53 71 1.0 3.0 0.04 0.24 0.07 93 1012.6
20260904114921 53 65 1.0 3.0 0.05 0.24 0.07 93 1012.7
20260904114455 53 54 2.0 3.0 0.05 0.24 0.07 93 1012.7
20260904113942 53 63 1.0 4.0 0.05 0.23 0.06 93 1012.7
20260904113439 53 64 2.0 4.0 0.05 0.23 0.06 93 1012.7
20260904112937 53 40 1.0 3.0 0.05 0.23 0.06 93 1012.7
20260904112432 53 76 0.0 1.0 0.04 0.22 0.05 93 1012.7
20260904111950 53 75 0.0 2.0 0.04 0.22 0.05 92 1012.7
20260904111429 53 68 0.0 2.0 0.04 0.21 0.04 92 1012.6
20260904110927 53 69 0.0 3.0 0.04 0.21 0.04 92 1012.6
20260904110418 53 86 1.0 3.0 0.04 0.21 0.04 92 1012.6
20260904105942 53 53 1.0 3.0 0.03 0.20 0.03 92 1012.5
20260904105441 53 53 1.0 3.0 0.03 0.20 0.03 92 1012.6
20260904104939 54 77 0.0 0.0 0.02 0.19 0.02 92 1012.6
20260904104504 54 79 0.0 0.0 0.02 0.19 0.02 91 1012.7
20260904103941 54 79 0.0 0.0 0.01 0.18 0.01 91 1012.6
20260904103436 54 79 0.0 0.0 0.01 0.18 0.01 91 1012.5
20260904102934 54 79 0.0 0.0 0.01 0.18 0.01 91 1012.5
20260904102432 54 75 0.0 0.0 0.01 0.18 0.01 91 1012.4
20260904101930 54 96 0.0 0.0 0.01 0.18 0.01 91 1012.4
20260904101451 54 79 0.0 0.0 0.00 0.17 0.00 91 1012.4
20260904100936 54 72 0.0 0.0 0.00 0.17 0.00 91 1012.4
20260904100443 54 72 0.0 0.0 0.00 0.17 0.00 91 1012.3
20260904095918 54 72 0.0 0.0 0.00 0.17 0.00 91 1012.3
20260904095435 54 70 0.0 1.0 0.00 0.17 0.00 91 1012.3
20260904094934 54 83 0.0 1.0 0.00 0.17 0.00 91 1012.3
20260904094432 54 88 0.0 2.0 0.00 0.17 0.00 91 1012.3
20260904093929 54 86 0.0 2.0 0.00 0.17 0.00 91 1012.2
20260904093427 54 74 0.0 2.0 0.00 0.17 0.00 91 1012.2
20260904092918 54 18 0.0 1.0 0.00 0.17 0.00 91 1012.2
20260904092446 54 73 0.0 0.0 0.00 0.17 0.00 91 1012.2
20260904091940 54 73 0.0 0.0 0.00 0.17 0.00 91 1012.2
20260904091438 54 74 0.0 2.0 0.00 0.17 0.00 90 1012.2
20260904090936 54 64 1.0 2.0 0.00 0.17 0.00 90 1012.1
20260904090454 55 85 1.0 2.0 0.00 0.17 0.00 90 1012.2
20260904085941 55 78 1.0 2.0 0.00 0.18 0.00 90 1012.2
20260904085439 55 60 0.0 2.0 0.00 0.18 0.00 90 1012.2
20260904084956 55 74 1.0 2.0 0.00 0.18 0.00 90 1012.2
20260904084435 55 110 1.0 3.0 0.00 0.18 0.00 90 1012.1
20260904083933 55 105 2.0 3.0 0.00 0.18 0.00 90 1012.2
20260904083426 55 74 1.0 4.0 0.00 0.18 0.00 91 1012.2
20260904082952 54 78 2.0 4.0 0.00 0.18 0.00 92 1012.2
20260904082428 54 22 0.0 1.0 0.00 0.18 0.00 93 1012.2
20260904081926 55 61 0.0 0.0 0.00 0.18 0.00 93 1012.2
20260904081446 55 58 0.0 0.0 0.00 0.18 0.00 93 1012.3
20260904080924 55 58 0.0 1.0 0.00 0.18 0.00 93 1012.3
20260904080442 55 268 0.0 2.0 0.00 0.18 0.00 92 1012.3
20260904075949 55 260 1.0 2.0 0.00 0.20 0.00 92 1012.2
20260904075426 55 157 0.0 2.0 0.00 0.20 0.00 92 1012.3
20260904074922 55 247 0.0 3.0 0.00 0.20 0.00 92 1012.3
20260904074435 55 99 0.0 4.0 0.00 0.20 0.00 92 1012.3
20260904073932 55 46 3.0 4.0 0.00 0.20 0.00 92 1012.1
20260904073440 55 81 0.0 1.0 0.00 0.20 0.00 92 1012.3
20260904072937 56 124 0.0 0.0 0.00 0.20 0.00 92 1012.2
20260904072434 56 124 0.0 1.0 0.00 0.20 0.00 92 1012.2
20260904071932 56 124 0.0 2.0 0.00 0.20 0.00 91 1012.2
20260904071459 56 108 0.0 2.0 0.00 0.20 0.00 91 1012.2
20260904070937 56 68 0.0 3.0 0.00 0.20 0.00 92 1012.2
20260904070500 56 61 1.0 3.0 0.00 0.20 0.00 92 1012.1
20260904065918 56 72 1.0 2.0 0.00 0.24 0.20 92 1012.2
20260904065433 56 63 1.0 2.0 0.00 0.24 0.20 92 1012.2
20260904064934 56 81 0.0 3.0 0.00 0.24 0.20 92 1012.2
20260904064431 56 53 1.0 3.0 0.00 0.24 0.20 92 1012.1
20260904063931 56 66 1.0 2.0 0.00 0.24 0.20 93 1012.2
20260904063427 55 67 1.0 2.0 0.00 0.24 0.20 92 1012.1
20260904062948 56 68 1.0 2.0 0.00 0.24 0.20 92 1012.1
20260904062419 56 88 0.0 1.0 0.01 0.24 0.20 92 1012.1
20260904061946 56 108 0.0 1.0 0.01 0.24 0.20 92 1012.1
20260904061440 56 129 0.0 2.0 0.01 0.24 0.20 92 1012.1
20260904060958 56 71 1.0 3.0 0.01 0.24 0.20 92 1012.0
20260904060436 56 117 1.0 4.0 0.01 0.24 0.20 91 1012.0
20260904060003 56 76 1.0 4.0 0.01 0.24 0.20 92 1012.0
20260904055419 56 58 0.0 2.0 0.01 0.24 0.20 92 1012.1
20260904054918 56 55 0.0 3.0 0.01 0.24 0.20 92 1012.0
20260904054435 56 47 1.0 3.0 0.01 0.24 0.20 92 1012.1
20260904053933 56 23 0.0 0.0 0.01 0.24 0.20 93 1012.1
20260904053439 56 100 0.0 0.0 0.01 0.24 0.20 93 1012.2
20260904052938 56 101 0.0 0.0 0.01 0.24 0.20 92 1012.2
20260904052433 56 4 0.0 0.0 0.00 0.23 0.19 92 1012.1
20260904051931 56 74 0.0 0.0 0.00 0.23 0.19 92 1012.1
20260904051439 56 74 0.0 0.0 0.00 0.23 0.19 92 1012.1
20260904050937 56 74 0.0 0.0 0.00 0.23 0.19 92 1012.3
20260904050456 56 75 0.0 0.0 0.00 0.23 0.19 92 1012.3
20260904045942 56 75 0.0 0.0 0.00 0.23 0.19 92 1012.4
20260904045439 56 75 0.0 0.0 0.00 0.23 0.19 92 1012.3
20260904044936 56 66 0.0 0.0 0.00 0.23 0.19 92 1012.3
20260904044432 56 77 0.0 0.0 0.00 0.23 0.19 92 1012.4
20260904043929 56 78 0.0 0.0 0.00 0.23 0.19 91 1012.4
20260904043435 56 79 0.0 0.0 0.00 0.23 0.19 91 1012.4
20260904042929 56 65 0.0 0.0 0.00 0.23 0.19 91 1012.4
20260904042426 56 102 0.0 0.0 0.00 0.23 0.19 91 1012.4
20260904041926 56 152 0.0 0.0 0.00 0.23 0.19 91 1012.5
20260904041423 57 231 0.0 1.0 0.00 0.23 0.19 90 1012.4
20260904041004 57 191 0.0 2.0 0.00 0.23 0.19 90 1012.3
20260904040442 57 170 0.0 3.0 0.00 0.23 0.19 90 1012.3
20260904035918 57 68 1.0 3.0 0.00 0.23 0.19 90 1012.3
20260904035444 56 75 1.0 3.0 0.00 0.23 0.19 91 1012.2
20260904034920 56 46 1.0 2.0 0.00 0.23 0.19 91 1012.1
20260904034419 56 75 0.0 1.0 0.00 0.23 0.19 91 1012.2
20260904033942 56 51 0.0 1.0 0.00 0.23 0.19 91 1012.1
20260904033439 57 113 0.0 1.0 0.00 0.23 0.19 92 1012.1
20260904032938 57 56 0.0 1.0 0.00 0.23 0.19 92 1012.1
20260904032434 57 100 0.0 0.0 0.00 0.23 0.19 91 1012.0
20260904031933 57 100 0.0 1.0 0.00 0.23 0.19 91 1011.8
20260904031438 57 100 0.0 1.0 0.00 0.23 0.19 91 1011.8
20260904030936 57 101 0.0 0.0 0.00 0.23 0.19 90 1011.8
20260904030432 57 101 0.0 1.0 0.00 0.23 0.19 90 1011.8
20260904025932 57 101 0.0 1.0 0.00 0.23 0.19 90 1011.7
20260904025428 57 101 0.0 1.0 0.00 0.23 0.19 89 1011.7
20260904024946 57 103 0.0 1.0 0.00 0.23 0.19 88 1011.7
20260904024443 58 103 0.0 1.0 0.00 0.23 0.19 88 1011.6
20260904023922 58 109 0.0 1.0 0.00 0.23 0.19 88 1011.6
20260904023421 58 62 0.0 1.0 0.00 0.23 0.19 89 1011.6
20260904022919 58 62 0.0 0.0 0.00 0.23 0.19 89 1011.6
20260904022435 58 61 0.0 1.0 0.00 0.23 0.19 88 1011.6
20260904021932 58 61 0.0 4.0 0.00 0.23 0.19 88 1011.6
20260904021439 58 60 1.0 4.0 0.00 0.23 0.19 88 1011.7
20260904020936 58 77 0.0 2.0 0.00 0.23 0.19 88 1011.6
20260904020432 58 70 0.0 1.0 0.00 0.23 0.19 88 1011.7
20260904015928 58 103 0.0 1.0 0.00 0.23 0.19 88 1011.7
20260904015419 58 103 0.0 2.0 0.00 0.23 0.19 87 1011.7
20260904014942 58 92 1.0 2.0 0.00 0.23 0.19 86 1011.7
20260904014439 58 87 0.0 2.0 0.00 0.23 0.19 87 1011.7
20260904013937 58 67 0.0 2.0 0.00 0.23 0.19 87 1011.8
20260904013434 58 98 0.0 1.0 0.00 0.23 0.19 88 1011.7
20260904012952 58 106 0.0 2.0 0.00 0.23 0.19 88 1011.8
20260904012428 58 27 0.0 5.0 0.00 0.23 0.19 88 1011.8
20260904011919 57 98 2.0 5.0 0.00 0.23 0.19 89 1011.8
20260904011427 57 57 1.0 4.0 0.00 0.23 0.19 88 1011.8
20260904010925 57 65 1.0 3.0 0.00 0.23 0.19 88 1011.9
20260904010422 57 90 0.0 3.0 0.00 0.23 0.19 90 1011.9
20260904010004 57 46 0.0 3.0 0.00 0.25 0.19 89 1011.9
20260904005441 57 99 0.0 3.0 0.00 0.25 0.19 90 1012.0
20260904004938 57 130 1.0 3.0 0.00 0.25 0.19 89 1011.9
20260904004437 57 72 1.0 3.0 0.00 0.25 0.19 89 1011.8
20260904003936 57 95 1.0 3.0 0.00 0.25 0.19 88 1011.8
20260904003433 57 116 0.0 2.0 0.00 0.25 0.19 89 1011.8
20260904003000 57 56 1.0 2.0 0.00 0.25 0.19 89 1011.8
20260904002435 57 50 0.0 4.0 0.00 0.25 0.19 89 1011.8
20260904001953 57 76 1.0 3.0 0.02 0.25 0.19 89 1011.7
20260904001449 57 51 0.0 2.0 0.03 0.25 0.19 90 1011.9
20260904000926 57 240 0.0 1.0 0.03 0.25 0.19 90 1012.0
20260904000447 57 238 0.0 1.0 0.05 0.25 0.19 90 1012.1
20260903235943 57 237 0.0 2.0 0.05 0.47 0.19 89 1011.9
20260903235421 56 270 0.0 2.0 0.05 0.47 0.19 89 1011.9
20260903234918 56 249 0.0 0.0 0.05 0.47 0.19 91 1011.9
20260903234446 56 26 0.0 1.0 0.05 0.47 0.19 91 1011.8
20260903233941 56 34 0.0 2.0 0.05 0.47 0.19 91 1011.8
20260903233437 56 37 0.0 1.0 0.05 0.47 0.19 90 1011.9
20260903232935 56 266 0.0 1.0 0.05 0.47 0.19 89 1011.9
20260903232429 57 53 0.0 0.0 0.04 0.46 0.18 90 1011.8
20260903231928 57 273 0.0 2.0 0.03 0.45 0.17 89 1012.3
20260903231455 57 281 0.0 5.0 0.02 0.44 0.16 87 1012.2
20260903230931 58 290 2.0 6.0 0.01 0.43 0.15 86 1012.4
20260903230430 58 250 2.0 6.0 0.00 0.42 0.14 85 1012.5
20260903225948 59 274 1.0 4.0 0.00 0.42 0.14 84 1012.3
20260903225425 59 235 1.0 6.0 0.00 0.42 0.14 84 1012.4
20260903224923 60 296 3.0 6.0 0.00 0.42 0.14 81 1012.3
20260903224420 62 271 2.0 4.0 0.00 0.42 0.14 77 1012.1
20260903223937 62 252 2.0 3.0 0.00 0.42 0.14 75 1012.2
20260903223430 63 268 1.0 5.0 0.00 0.42 0.14 75 1012.0
20260903222932 63 231 2.0 5.0 0.00 0.42 0.14 72 1011.8
20260903222429 64 272 0.0 2.0 0.00 0.42 0.14 72 1011.8
20260903221927 64 21 0.0 2.0 0.00 0.42 0.14 70 1011.8
20260903221438 64 274 0.0 3.0 0.00 0.42 0.14 72 1011.9
20260903220939 63 274 1.0 3.0 0.00 0.42 0.14 70 1011.9
20260903220436 63 271 0.0 3.0 0.00 0.42 0.14 73 1011.9
20260903220002 63 270 1.0 3.0 0.00 0.43 0.14 72 1012.0
20260903215439 63 242 0.0 4.0 0.00 0.43 0.14 72 1012.0
20260903214937 63 110 2.0 4.0 0.00 0.43 0.14 72 1012.0
20260903214430 63 252 1.0 2.0 0.00 0.43 0.14 73 1011.9
20260903213927 63 210 0.0 3.0 0.00 0.43 0.14 75 1012.0
20260903213425 62 229 1.0 3.0 0.00 0.43 0.14 75 1012.1
20260903212945 62 279 1.0 4.0 0.00 0.43 0.14 76 1012.2
20260903212435 62 246 2.0 4.0 0.00 0.43 0.14 76 1012.2